Temp
52 51 52 52 51 51 51 51 51 51 52 51 51 51 51 50 50 50 50 51 51 52 52 51 52 52 51 52 52 52 52 52 52 51 52 52 51 51 51 50 50 50 50 50 50 50 49 49 48 48 48 43
51 51 51 51 50 50 50 50 50 50 50 50 50 50 49 49 49 49 50 51 51 52 52 51 51 51 51 51 51 51 52 51 51 51 51 51 51 50 50 50 50 49 49 49 49 49 48 47 46 47 46 40
49 51 50 50 49 49 49 49 49 49 49 49 49 49 49 49 49 49 50 51 51 51 51 50 50 50 51 51 51 51 51 51 51 50 50 50 50 50 49 49 49 48 48 48 48 48 47 46 45 45 41 38
48 49 51 50 50 49 48 48 48 48 49 48 49 49 49 48 47 47 47 50 48 49 50 49 48 49 50 50 50 50 50 50 50 50 49 49 49 49 48 48 47 47 47 47 46 46 46 45 43 37 35 36
49 49 49 49 50 49 49 49 48 48 48 49 48 48 47 46 44 42 42 43 43 48 44 47 47 48 49 49 49 49 49 49 49 49 49 48 48 48 47 46 46 46 46 46 45 45 44 43 36 34 34 35
48 47 49 46 46 46 47 49 49 45 44 48 43 47 43 41 43 41 41 41 45 42 43 43 47 48 49 50 50 50 49 48 49 49 48 48 49 48 48 46 38 39 43 45 44 44 44 36 33 33 33 33
49 47 46 46 46 46 49 47 45 44 45 43 43 43 42 43 41 41 40 41 44 44 46 45 48 48 49 50 50 49 48 48 49 49 49 49 49 48 47 40 36 35 34 35 44 42 37 32 33 33 33 32
48 47 47 46 45 45 44 44 44 43 42 43 43 42 41 41 41 40 39 45 46 46 42 42 46 47 48 48 49 49 46 47 47 49 49 48 48 46 42 36 36 36 34 34 33 33 32 31 31 32 33 32
46 46 45 45 44 45 44 43 43 43 42 42 41 41 41 41 40 39 38 39 39 39 39 38 39 41 41 41 39 46 38 40 40 42 38 39 41 37 37 37 35 35 33 34 34 31 30 31 32 32 33 30
48 49 44 44 45 44 45 45 43 43 42 42 41 40 41 41 39 38 38 38 37 37 38 38 38 39 40 39 38 41 40 38 37 37 37 38 39 37 36 37 35 35 36 35 34 30 29 29 29 28 30 30
46 44 44 45 44 43 43 42 43 41 41 42 41 41 40 40 38 37 37 37 37 37 37 37 37 37 38 39 39 40 38 37 37 37 37 36 37 36 36 36 35 35 34 34 33 33 32 29 28 28 29 30
45 44 46 46 46 45 43 43 41 40 40 42 40 41 41 42 38 36 36 36 36 36 36 36 37 37 37 37 37 40 38 38 36 36 36 36 36 37 36 36 35 35 35 33 34 32 32 30 28 28 29 30
45 45 46 45 43 41 46 43 41 40 42 40 40 41 40 40 37 36 36 35 35 36 35 36 36 35 35 37 37 39 36 36 36 36 35 36 36 36 36 35 35 34 35 35 35 35 32 32 29 28 29 29
45 45 44 45 44 42 45 40 42 41 39 39 39 38 39 39 38 36 35 34 35 35 34 35 35 36 36 36 36 36 37 36 35 34 34 34 35 35 35 35 36 36 34 34 34 34 34 33 33 29 30 28
47 46 45 45 43 43 43 42 43 41 40 39 39 40 39 38 38 37 35 35 34 34 34 34 34 35 36 34 35 36 36 35 35 34 34 34 34 34 34 34 34 34 34 33 34 34 34 33 34 32 33 30
47 47 46 45 44 43 43 43 40 39 40 40 38 39 38 37 36 38 35 35 34 34 34 33 33 33 34 34 34 36 35 35 34 34 34 34 35 35 35 34 34 35 33 33 34 34 33 33 33 31 32 32
46 45 45 45 44 44 44 42 41 40 40 40 40 39 38 37 37 37 36 34 35 36 33 33 33 33 35 35 36 36 35 34 33 33 33 34 35 33 34 34 33 35 34 33 33 34 33 34 32 33 33 32
46 45 45 45 43 43 42 40 39 40 40 40 39 39 38 37 37 37 35 34 34 33 32 33 33 33 33 33 34 35 34 32 33 32 31 32 32 34 34 31 32 31 32 32 32 32 33 33 33 33 32 32
47 46 45 43 43 43 41 42 40 38 40 38 38 39 36 37 37 37 35 34 33 33 32 32 32 33 32 34 34 32 32 32 32 32 32 31 31 31 30 30 32 32 31 31 32 32 33 32 33 32 32 32
48 48 46 43 44 43 40 39 40 39 39 39 37 37 37 37 37 36 35 34 34 31 32 31 31 32 33 33 32 32 31 32 30 31 31 32 31 28 29 31 29 31 30 31 32 32 32 31 33 31 32 32
45 47 46 46 44 43 40 39 38 37 39 39 38 36 35 36 37 35 35 34 33 32 32 31 32 31 33 33 31 30 29 29 31 29 31 30 32 31 27 28 29 30 30 30 31 31 31 31 32 31 32 32
46 46 46 43 42 42 41 41 39 38 38 38 36 36 35 36 36 36 34 34 33 31 33 32 31 31 32 32 29 29 29 28 30 29 29 28 29 30 29 27 27 27 29 30 30 30 31 31 31 31 32 32
46 45 44 42 42 41 41 40 38 37 36 36 37 36 36 36 36 36 34 33 33 31 31 31 31 31 31 31 28 29 28 28 29 30 29 28 27 29 29 27 27 27 28 29 29 29 30 31 32 32 33 33
41 40 40 38 39 39 39 39 37 38 37 37 36 37 36 36 34 34 34 33 33 32 32 30 30 30 31 29 28 27 27 27 26 26 27 27 28 27 28 30 28 28 27 28 28 29 30 31 31 31 33 33
40 38 37 36 37 37 38 38 39 38 37 37 37 37 36 35 34 33 33 34 32 31 32 31 29 30 29 29 29 27 27 27 27 28 27 26 28 27 25 25 27 27 28 25 24 26 27 28 30 33 34 33
41 39 38 37 36 38 37 37 35 36 37 37 38 37 36 35 34 33 33 33 32 32 31 29 29 29 28 28 28 28 28 28 30 29 27 27 24 26 25 24 26 27 27 24 22 22 23 24 28 30 32 32
41 41 40 39 38 38 36 38 40 38 37 38 36 36 35 34 33 33 32 32 33 31 31 30 29 28 28 28 29 28 27 27 26 26 26 25 24 23 25 26 28 27 28 22 24 24 22 20 21 26 28 29
41 42 42 40 40 40 40 38 40 40 37 35 34 33 35 33 33 33 32 32 32 31 30 30 29 29 28 28 28 27 26 26 26 26 26 26 26 25 22 24 24 29 28 26 23 16 20 19 22 18 22 22
40 40 37 36 36 36 36 35 34 34 34 35 35 34 31 33 33 33 32 31 31 31 30 29 29 29 29 29 28 28 27 27 27 27 26 27 26 25 24 22 24 27 27 26 27 22 19 14 14 16 21 23
39 37 35 33 32 31 32 31 29 31 33 33 33 34 36 34 33 32 32 31 31 31 31 29 29 29 30 30 30 29 27 27 27 26 27 27 26 25 26 24 23 22 28 27 28 27 25 23 17 15 19 20
39 36 34 34 33 32 33 32 33 34 34 33 34 35 35 34 34 32 32 31 31 30 31 31 30 29 29 30 30 30 28 27 27 27 27 27 26 26 27 25 22 23 23 26 26 27 27 26 26 23 20 14
MSLP
1025.69 1025.73 1025.69 1025.65 1025.65 1025.65 1025.65 1025.61 1025.57 1025.53 1025.49 1025.49 1025.49 1025.45 1025.45 1025.49 1025.45 1025.33 1025.17 1025.05 1024.89 1024.77 1024.69 1024.69 1024.65 1024.61 1024.53 1024.41 1024.29 1024.13 1024.01 1023.89 1023.81 1023.73 1023.57 1023.45 1023.45 1023.37 1023.33 1023.25 1023.13 1022.97 1022.77 1022.53 1022.37 1022.29 1022.21 1022.13 1021.97 1021.85 1021.77 1022.01
1025.53 1025.57 1025.57 1025.53 1025.57 1025.61 1025.61 1025.61 1025.57 1025.53 1025.49 1025.45 1025.45 1025.45 1025.45 1025.45 1025.37 1025.25 1025.09 1024.89 1024.81 1024.73 1024.65 1024.65 1024.65 1024.61 1024.53 1024.41 1024.29 1024.21 1024.09 1023.97 1023.85 1023.73 1023.61 1023.53 1023.49 1023.49 1023.45 1023.33 1023.17 1023.05 1022.89 1022.73 1022.53 1022.37 1022.29 1022.29 1022.21 1022.05 1022.01 1022.21
1025.21 1025.33 1025.41 1025.41 1025.45 1025.49 1025.49 1025.53 1025.53 1025.53 1025.49 1025.45 1025.41 1025.37 1025.37 1025.33 1025.29 1025.17 1024.97 1024.81 1024.73 1024.69 1024.61 1024.61 1024.69 1024.69 1024.53 1024.41 1024.33 1024.29 1024.17 1024.05 1023.93 1023.81 1023.69 1023.57 1023.57 1023.61 1023.53 1023.41 1023.25 1023.09 1022.97 1022.81 1022.69 1022.57 1022.41 1022.37 1022.37 1022.29 1022.29 1022.29
1025.01 1025.17 1025.21 1025.25 1025.29 1025.33 1025.37 1025.41 1025.45 1025.45 1025.41 1025.41 1025.33 1025.29 1025.29 1025.29 1025.25 1025.13 1024.97 1024.81 1024.85 1024.77 1024.65 1024.73 1024.73 1024.65 1024.53 1024.45 1024.41 1024.37 1024.29 1024.17 1024.05 1023.89 1023.77 1023.73 1023.77 1023.77 1023.69 1023.53 1023.41 1023.21 1023.09 1022.93 1022.85 1022.73 1022.65 1022.53 1022.53 1022.61 1022.53 1022.41
1024.85 1024.97 1025.09 1025.09 1025.09 1025.09 1025.17 1025.21 1025.25 1025.33 1025.33 1025.29 1025.33 1025.25 1025.29 1025.29 1025.25 1025.09 1025.01 1025.01 1024.97 1024.81 1024.81 1024.77 1024.73 1024.61 1024.49 1024.45 1024.41 1024.33 1024.29 1024.25 1024.09 1023.89 1023.85 1023.89 1023.89 1023.89 1023.77 1023.69 1023.53 1023.41 1023.17 1023.09 1022.97 1022.81 1022.73 1022.69 1022.73 1022.65 1022.61 1022.49
1024.73 1024.81 1024.85 1024.89 1024.81 1024.85 1024.89 1024.97 1025.09 1025.17 1025.17 1025.21 1025.21 1025.21 1025.25 1025.29 1025.17 1025.09 1025.13 1025.05 1024.93 1024.89 1024.89 1024.85 1024.65 1024.45 1024.29 1024.21 1024.21 1024.17 1024.21 1024.21 1024.01 1023.81 1023.81 1023.85 1023.81 1023.85 1023.69 1023.65 1023.65 1023.57 1023.37 1023.21 1023.01 1022.93 1022.85 1022.89 1022.81 1022.69 1022.57 1022.49
1024.45 1024.57 1024.61 1024.57 1024.57 1024.65 1024.69 1024.77 1024.81 1024.93 1024.97 1025.05 1025.09 1025.13 1025.17 1025.13 1025.09 1025.09 1025.09 1025.01 1024.89 1024.81 1024.77 1024.69 1024.49 1024.37 1024.21 1024.09 1024.09 1024.09 1024.09 1024.01 1023.85 1023.73 1023.69 1023.69 1023.69 1023.65 1023.65 1023.61 1023.65 1023.53 1023.45 1023.33 1023.09 1023.01 1023.01 1022.89 1022.81 1022.69 1022.57 1022.45
1024.17 1024.25 1024.25 1024.29 1024.33 1024.41 1024.49 1024.53 1024.61 1024.69 1024.77 1024.85 1024.93 1025.01 1025.05 1025.05 1025.05 1025.05 1025.01 1024.93 1024.81 1024.77 1024.77 1024.73 1024.61 1024.41 1024.21 1024.09 1024.05 1023.97 1023.97 1023.97 1023.85 1023.65 1023.69 1023.77 1023.65 1023.61 1023.69 1023.65 1023.57 1023.45 1023.41 1023.29 1023.21 1023.09 1022.93 1022.85 1022.73 1022.65 1022.53 1022.45
1024.01 1024.01 1024.01 1024.09 1024.13 1024.17 1024.25 1024.33 1024.37 1024.45 1024.57 1024.61 1024.69 1024.81 1024.89 1024.93 1024.93 1024.93 1024.89 1024.85 1024.81 1024.77 1024.77 1024.73 1024.61 1024.45 1024.29 1024.13 1024.05 1023.93 1023.93 1023.89 1023.81 1023.77 1023.85 1023.81 1023.69 1023.61 1023.53 1023.49 1023.41 1023.33 1023.25 1023.17 1023.09 1023.01 1022.89 1022.73 1022.69 1022.61 1022.49 1022.41
1023.73 1023.73 1023.81 1023.89 1023.89 1023.93 1024.01 1024.09 1024.13 1024.21 1024.29 1024.37 1024.45 1024.61 1024.69 1024.77 1024.77 1024.77 1024.81 1024.77 1024.73 1024.69 1024.65 1024.61 1024.57 1024.45 1024.29 1024.13 1023.97 1023.89 1023.85 1023.81 1023.77 1023.77 1023.77 1023.69 1023.61 1023.49 1023.41 1023.29 1023.21 1023.13 1023.05 1022.97 1022.85 1022.77 1022.65 1022.57 1022.49 1022.45 1022.41 1022.33
1023.41 1023.49 1023.61 1023.65 1023.61 1023.69 1023.77 1023.85 1023.93 1024.01 1024.09 1024.17 1024.25 1024.37 1024.49 1024.57 1024.57 1024.65 1024.69 1024.65 1024.61 1024.57 1024.49 1024.49 1024.49 1024.41 1024.29 1024.13 1024.01 1023.89 1023.85 1023.81 1023.77 1023.73 1023.65 1023.57 1023.45 1023.37 1023.25 1023.13 1023.01 1022.93 1022.85 1022.77 1022.65 1022.53 1022.45 1022.37 1022.29 1022.25 1022.25 1022.17
1023.17 1023.21 1023.29 1023.37 1023.37 1023.49 1023.61 1023.69 1023.73 1023.81 1023.89 1023.93 1024.05 1024.17 1024.21 1024.25 1024.37 1024.45 1024.53 1024.53 1024.49 1024.45 1024.41 1024.45 1024.41 1024.33 1024.25 1024.13 1024.01 1023.89 1023.81 1023.77 1023.73 1023.65 1023.57 1023.45 1023.37 1023.25 1023.17 1023.05 1022.89 1022.81 1022.69 1022.61 1022.49 1022.37 1022.25 1022.17 1022.09 1022.05 1022.01 1021.93
1022.93 1022.97 1023.05 1023.09 1023.17 1023.29 1023.37 1023.49 1023.53 1023.61 1023.61 1023.73 1023.85 1023.89 1023.93 1024.01 1024.17 1024.25 1024.33 1024.37 1024.33 1024.29 1024.33 1024.33 1024.29 1024.25 1024.21 1024.13 1023.97 1023.85 1023.77 1023.69 1023.65 1023.57 1023.49 1023.41 1023.33 1023.25 1023.13 1022.97 1022.85 1022.73 1022.65 1022.53 1022.37 1022.21 1022.09 1021.97 1021.93 1021.85 1021.77 1021.73
1022.69 1022.73 1022.81 1022.81 1022.89 1023.01 1023.05 1023.13 1023.25 1023.33 1023.41 1023.53 1023.61 1023.65 1023.69 1023.77 1023.89 1024.05 1024.17 1024.17 1024.17 1024.17 1024.17 1024.21 1024.21 1024.17 1024.09 1024.01 1023.85 1023.73 1023.69 1023.61 1023.53 1023.53 1023.49 1023.37 1023.33 1023.25 1023.09 1022.97 1022.77 1022.65 1022.57 1022.41 1022.25 1022.09 1021.93 1021.81 1021.73 1021.65 1021.57 1021.49
1022.29 1022.45 1022.49 1022.53 1022.61 1022.73 1022.77 1022.89 1023.01 1023.05 1023.17 1023.29 1023.33 1023.37 1023.45 1023.53 1023.65 1023.85 1023.97 1024.01 1024.01 1024.01 1024.05 1024.05 1024.09 1024.09 1024.01 1023.89 1023.81 1023.73 1023.65 1023.53 1023.45 1023.45 1023.45 1023.45 1023.41 1023.29 1023.09 1022.85 1022.65 1022.53 1022.41 1022.25 1022.13 1021.97 1021.77 1021.65 1021.57 1021.53 1021.41 1021.29
1022.05 1022.13 1022.21 1022.29 1022.41 1022.49 1022.61 1022.69 1022.77 1022.81 1022.93 1022.97 1023.01 1023.09 1023.17 1023.33 1023.49 1023.61 1023.73 1023.77 1023.85 1023.89 1023.89 1023.89 1023.93 1023.93 1023.93 1023.89 1023.77 1023.69 1023.61 1023.53 1023.45 1023.41 1023.41 1023.37 1023.29 1023.09 1022.81 1022.61 1022.49 1022.37 1022.25 1022.09 1021.97 1021.81 1021.65 1021.53 1021.45 1021.37 1021.29 1021.13
1022.01 1022.17 1022.21 1022.25 1022.29 1022.37 1022.45 1022.57 1022.61 1022.69 1022.69 1022.73 1022.77 1022.81 1022.93 1023.05 1023.21 1023.33 1023.49 1023.57 1023.65 1023.65 1023.65 1023.73 1023.77 1023.81 1023.77 1023.69 1023.61 1023.57 1023.49 1023.41 1023.37 1023.37 1023.37 1023.21 1023.01 1022.85 1022.69 1022.53 1022.41 1022.21 1022.09 1021.97 1021.85 1021.69 1021.57 1021.41 1021.33 1021.25 1021.13 1020.97
1021.77 1021.93 1022.01 1022.05 1022.05 1022.13 1022.25 1022.37 1022.45 1022.53 1022.57 1022.57 1022.61 1022.61 1022.69 1022.81 1022.93 1023.05 1023.17 1023.29 1023.37 1023.41 1023.53 1023.57 1023.57 1023.57 1023.53 1023.49 1023.41 1023.41 1023.37 1023.33 1023.29 1023.29 1023.21 1023.05 1022.93 1022.81 1022.65 1022.49 1022.33 1022.21 1022.09 1021.93 1021.77 1021.65 1021.49 1021.37 1021.21 1021.09 1021.01 1020.85
1021.49 1021.61 1021.73 1021.81 1021.85 1021.93 1021.97 1022.09 1022.21 1022.29 1022.37 1022.41 1022.45 1022.53 1022.57 1022.65 1022.73 1022.85 1022.97 1023.01 1023.13 1023.21 1023.33 1023.41 1023.37 1023.33 1023.29 1023.29 1023.25 1023.25 1023.25 1023.21 1023.21 1023.21 1023.13 1023.05 1022.93 1022.77 1022.65 1022.45 1022.29 1022.17 1022.09 1021.93 1021.73 1021.57 1021.41 1021.25 1021.09 1020.93 1020.85 1020.69
1021.29 1021.33 1021.41 1021.57 1021.65 1021.77 1021.85 1021.97 1022.05 1022.09 1022.13 1022.21 1022.29 1022.33 1022.41 1022.49 1022.57 1022.69 1022.81 1022.89 1022.97 1023.09 1023.17 1023.17 1023.13 1023.09 1023.09 1023.05 1023.05 1023.09 1023.13 1023.13 1023.17 1023.13 1023.05 1022.89 1022.81 1022.73 1022.61 1022.41 1022.25 1022.17 1022.09 1021.89 1021.69 1021.49 1021.29 1021.13 1020.97 1020.89 1020.73 1020.57
1021.05 1021.13 1021.21 1021.29 1021.37 1021.53 1021.69 1021.81 1021.89 1021.97 1022.01 1022.05 1022.09 1022.17 1022.21 1022.29 1022.37 1022.49 1022.65 1022.73 1022.85 1022.97 1023.01 1022.97 1022.89 1022.85 1022.85 1022.89 1022.93 1022.97 1023.01 1023.05 1023.05 1023.05 1022.97 1022.85 1022.69 1022.61 1022.53 1022.37 1022.25 1022.13 1022.05 1021.89 1021.69 1021.45 1021.25 1021.05 1020.93 1020.81 1020.61 1020.41
1020.73 1020.89 1020.97 1021.09 1021.17 1021.29 1021.45 1021.53 1021.69 1021.77 1021.85 1021.89 1021.93 1022.01 1022.05 1022.13 1022.17 1022.29 1022.41 1022.57 1022.73 1022.85 1022.89 1022.81 1022.73 1022.69 1022.69 1022.73 1022.77 1022.81 1022.85 1022.89 1022.89 1022.93 1022.85 1022.77 1022.61 1022.53 1022.49 1022.41 1022.29 1022.21 1022.05 1021.93 1021.69 1021.49 1021.25 1020.97 1020.85 1020.61 1020.37 1020.13
1020.53 1020.65 1020.77 1020.89 1021.01 1021.13 1021.21 1021.37 1021.49 1021.57 1021.65 1021.69 1021.73 1021.77 1021.81 1021.89 1021.97 1022.01 1022.13 1022.29 1022.49 1022.61 1022.69 1022.69 1022.65 1022.61 1022.57 1022.57 1022.65 1022.65 1022.69 1022.73 1022.73 1022.73 1022.69 1022.61 1022.57 1022.41 1022.37 1022.29 1022.25 1022.21 1022.09 1021.93 1021.69 1021.37 1021.05 1020.85 1020.61 1020.29 1020.01 1019.77
1020.45 1020.61 1020.73 1020.85 1020.97 1021.09 1021.13 1021.21 1021.37 1021.41 1021.45 1021.49 1021.49 1021.49 1021.57 1021.65 1021.73 1021.81 1021.93 1022.05 1022.17 1022.29 1022.37 1022.45 1022.49 1022.49 1022.45 1022.49 1022.49 1022.49 1022.49 1022.49 1022.53 1022.53 1022.49 1022.41 1022.37 1022.37 1022.25 1022.13 1022.13 1022.09 1022.01 1021.77 1021.53 1021.17 1020.93 1020.69 1020.33 1019.97 1019.61 1019.33
1020.45 1020.61 1020.77 1020.93 1021.05 1021.09 1021.09 1021.09 1021.13 1021.17 1021.25 1021.33 1021.33 1021.37 1021.37 1021.45 1021.53 1021.65 1021.73 1021.81 1021.93 1022.01 1022.05 1022.13 1022.25 1022.25 1022.29 1022.33 1022.33 1022.29 1022.17 1022.13 1022.21 1022.21 1022.25 1022.25 1022.17 1022.17 1022.25 1022.21 1022.09 1022.01 1021.89 1021.77 1021.45 1021.21 1020.89 1020.41 1019.89 1019.45 1018.97 1018.77
1020.45 1020.53 1020.65 1020.77 1020.93 1020.97 1020.93 1020.93 1020.93 1020.93 1020.93 1020.97 1021.05 1021.13 1021.21 1021.25 1021.33 1021.41 1021.53 1021.61 1021.69 1021.73 1021.85 1021.97 1022.01 1022.01 1022.05 1022.17 1022.21 1022.13 1022.01 1021.85 1021.81 1021.89 1022.01 1022.05 1022.17 1022.05 1022.21 1022.21 1021.93 1021.81 1021.69 1021.65 1021.65 1021.45 1021.01 1020.53 1019.89 1019.05 1018.53 1018.33
1020.57 1020.53 1020.49 1020.61 1020.69 1020.73 1020.69 1020.61 1020.53 1020.49 1020.49 1020.53 1020.69 1020.81 1020.97 1021.09 1021.17 1021.29 1021.37 1021.41 1021.45 1021.49 1021.57 1021.65 1021.77 1021.77 1021.77 1021.85 1021.97 1022.01 1021.89 1021.69 1021.53 1021.49 1021.61 1021.77 1021.97 1022.17 1021.97 1021.85 1021.61 1021.53 1021.37 1021.69 1021.37 1021.41 1021.61 1020.93 1019.61 1018.77 1018.17 1018.05
1020.53 1020.53 1020.45 1020.45 1020.57 1020.61 1020.57 1020.49 1020.45 1020.37 1020.33 1020.37 1020.49 1020.61 1020.73 1020.93 1021.05 1021.09 1021.21 1021.25 1021.29 1021.25 1021.29 1021.37 1021.45 1021.49 1021.49 1021.53 1021.57 1021.69 1021.69 1021.53 1021.29 1021.21 1021.25 1021.37 1021.61 1021.85 1022.17 1021.77 1021.49 1021.17 1021.09 1021.09 1021.41 1022.09 1020.97 1020.65 1020.25 1020.21 1018.73 1019.49
1020.61 1020.61 1020.57 1020.53 1020.57 1020.57 1020.49 1020.45 1020.53 1020.53 1020.45 1020.37 1020.29 1020.37 1020.49 1020.49 1020.65 1020.85 1020.97 1021.01 1021.05 1021.09 1021.09 1021.13 1021.21 1021.25 1021.25 1021.25 1021.21 1021.25 1021.29 1021.25 1021.05 1020.85 1020.77 1020.85 1021.13 1021.37 1021.53 1021.73 1021.29 1020.89 1020.65 1020.73 1020.77 1021.21 1021.25 1020.77 1020.29 1019.45 1019.69 1019.37
1020.65 1020.73 1020.69 1020.65 1020.65 1020.65 1020.53 1020.49 1020.53 1020.45 1020.21 1020.05 1019.93 1019.81 1019.73 1020.01 1020.17 1020.33 1020.49 1020.61 1020.69 1020.69 1020.81 1020.89 1020.93 1021.01 1021.01 1020.97 1020.93 1020.85 1020.81 1020.89 1020.89 1020.65 1020.41 1020.33 1020.49 1020.77 1020.93 1021.13 1021.21 1021.05 1020.53 1020.49 1020.53 1020.49 1020.57 1020.37 1020.33 1020.29 1020.09 1019.93
1020.45 1020.49 1020.53 1020.57 1020.57 1020.53 1020.45 1020.37 1020.05 1019.77 1019.61 1019.49 1019.33 1019.25 1019.25 1019.29 1019.49 1019.73 1019.93 1020.09 1020.21 1020.29 1020.29 1020.41 1020.61 1020.73 1020.73 1020.73 1020.69 1020.57 1020.49 1020.49 1020.45 1020.37 1020.17 1020.05 1020.05 1020.17 1020.45 1020.69 1020.97 1020.89 1020.81 1020.53 1020.25 1020.21 1020.25 1020.25 1020.21 1020.25 1020.49 1020.61
Wind_Speed
4 1 2 5 5 6 7 7 8 8 9 9 10 11 11 11 13 14 14 12 10 11 12 11 13 14 14 15 15 15 15 14 14 14 15 14 14 15 15 14 14 14 15 16 17 16 15 16 16 16 14 5
8 5 1 3 2 3 5 5 6 8 8 8 9 10 10 11 13 14 13 11 9 11 11 10 12 13 14 15 15 15 15 14 14 14 15 14 14 14 15 15 15 14 13 14 15 16 16 14 14 14 12 5
4 8 2 1 2 0 2 2 4 6 7 7 7 9 9 10 13 13 12 10 10 12 12 11 12 13 15 13 14 15 15 13 13 14 14 14 14 14 15 15 15 14 12 13 14 14 15 14 12 12 8 4
2 7 3 2 5 5 3 3 2 4 6 5 6 7 8 10 9 9 7 11 9 12 12 11 11 14 13 13 13 13 13 12 12 13 12 13 14 13 14 14 14 12 11 13 13 13 13 13 11 5 5 5
2 3 4 4 7 7 5 5 3 4 5 4 5 5 6 7 5 4 3 6 4 10 5 12 14 13 13 12 12 12 12 11 12 12 10 11 12 11 12 11 10 11 11 13 12 12 11 11 5 3 3 4
3 3 6 5 2 2 3 3 4 3 2 3 1 4 2 2 3 3 4 4 6 3 5 7 14 13 12 12 12 12 11 10 12 12 9 10 10 11 11 8 3 4 8 11 11 11 11 5 3 3 4 3
4 4 4 4 4 3 5 5 3 3 1 1 1 0 0 2 2 3 3 4 5 5 10 9 12 13 13 13 13 12 10 10 13 11 8 11 11 9 10 3 2 3 3 4 9 8 5 2 3 4 3 3
5 5 4 3 3 3 3 3 2 3 3 2 1 1 1 1 1 2 3 6 9 8 4 5 10 13 13 11 10 10 6 9 10 10 9 11 12 6 3 3 1 1 2 3 3 2 4 3 3 3 4 3
4 4 3 3 4 4 3 3 3 3 2 3 3 2 1 1 2 3 3 3 3 3 3 3 4 5 5 4 3 6 3 4 3 4 2 4 6 3 2 2 3 2 3 3 3 3 3 2 3 4 4 4
5 6 3 3 4 5 4 4 3 3 3 3 3 2 1 2 3 2 2 2 3 3 3 3 4 5 6 4 3 3 5 3 3 3 4 4 4 4 3 3 3 3 3 5 4 3 3 3 2 3 5 5
5 5 6 6 5 5 4 3 4 3 3 3 2 1 3 4 2 1 3 3 3 4 2 3 4 4 5 5 5 4 4 3 3 4 4 4 4 4 4 4 3 3 4 4 4 4 4 3 3 3 5 5
6 5 5 5 4 5 4 4 5 4 5 3 2 4 4 2 2 3 2 3 2 3 3 3 3 3 5 5 5 4 3 5 4 4 5 4 4 4 4 4 4 4 4 4 4 4 4 3 4 4 4 4
6 5 5 6 5 5 6 6 6 5 4 3 4 4 4 3 3 3 2 3 3 2 3 3 3 3 4 5 6 5 5 3 4 4 4 4 4 5 5 5 4 4 5 5 5 5 4 4 4 4 4 4
6 6 6 6 6 6 5 6 6 5 4 5 5 4 4 4 3 3 3 3 3 3 3 3 3 4 5 5 5 3 5 5 3 4 5 4 4 5 5 6 5 4 6 5 4 5 5 5 5 4 4 4
6 6 6 6 6 6 6 5 6 5 5 5 6 5 4 4 3 2 3 4 3 2 3 3 3 4 5 4 5 4 4 3 3 3 3 4 5 6 6 6 6 5 5 5 5 5 5 5 5 5 5 4
6 6 6 5 6 6 6 5 6 6 6 6 6 4 4 4 4 3 3 3 3 3 4 4 4 3 4 5 6 5 5 5 3 3 3 5 6 7 6 5 5 5 6 6 6 5 5 5 5 6 6 6
4 5 4 5 5 5 5 6 5 6 6 6 5 4 5 5 4 4 4 4 4 3 3 3 3 4 4 5 5 4 4 4 3 3 5 6 5 4 5 6 6 5 5 5 6 5 5 6 5 5 6 6
5 5 5 6 5 5 6 6 6 5 6 5 5 5 5 5 5 4 5 4 4 3 4 4 5 4 5 4 4 4 4 5 5 5 4 4 4 5 5 5 5 5 6 6 6 5 5 5 6 6 5 6
5 4 6 6 6 6 5 6 6 6 5 5 5 5 6 5 5 5 5 4 4 4 4 5 5 5 5 5 4 5 3 3 4 4 5 5 5 5 5 5 5 5 5 6 6 5 6 6 6 5 6 6
5 6 5 5 6 5 4 6 6 6 6 5 5 5 5 5 5 5 5 5 4 4 5 5 5 5 5 4 3 4 3 2 3 4 5 5 4 4 5 5 5 5 6 6 7 6 6 6 5 6 7 7
5 5 5 5 5 5 4 5 6 5 5 5 5 5 6 5 5 4 5 5 4 4 5 5 5 4 4 3 4 4 4 3 4 3 4 5 5 5 5 4 6 6 5 6 6 6 6 6 6 7 8 8
5 5 5 5 4 4 6 5 5 5 5 6 6 5 6 5 5 5 5 5 5 5 5 5 5 4 5 4 3 3 4 4 3 4 4 4 4 5 5 5 5 5 5 6 6 7 8 8 6 8 8 8
4 4 4 4 4 4 4 5 5 5 6 6 6 6 5 5 6 5 6 6 6 5 5 5 5 5 4 4 5 5 4 4 4 5 5 5 5 4 4 5 4 5 6 7 7 8 8 7 9 9 8 8
4 4 4 4 4 4 5 5 5 5 6 6 6 6 6 6 6 5 5 6 6 6 6 5 6 5 5 5 5 6 6 6 5 5 5 6 5 6 5 4 4 5 5 6 7 8 8 9 11 12 10 9
4 4 4 3 4 6 5 5 5 6 6 6 6 6 6 6 6 5 6 6 7 7 7 6 5 5 5 6 6 6 7 6 6 5 4 3 3 4 4 4 4 5 6 6 6 6 9 8 7 10 10 9
3 3 3 5 5 5 6 6 5 6 6 7 7 6 6 6 5 6 6 6 6 7 7 6 6 6 6 6 6 6 6 5 6 6 5 4 4 3 5 5 4 7 4 5 5 6 6 6 9 11 10 10
4 4 3 3 4 4 5 4 5 5 6 6 6 6 6 6 5 6 7 7 7 7 7 7 7 7 6 6 6 7 7 7 7 6 6 5 5 5 4 6 5 6 6 5 3 4 5 7 4 4 2 2
4 5 5 4 4 6 5 5 4 5 4 3 4 5 6 5 6 7 7 7 7 7 7 8 8 7 6 7 7 7 7 7 8 7 6 6 6 5 6 5 6 6 7 6 4 3 4 3 3 6 1 3
4 5 5 4 4 5 5 4 5 6 7 6 6 5 5 8 7 7 8 8 8 8 8 7 7 7 7 7 7 7 7 8 8 7 7 8 7 7 7 7 5 6 5 6 6 6 2 3 1 3 2 5
3 4 5 4 4 6 5 6 5 7 8 7 7 9 8 7 8 9 9 8 9 9 8 8 8 8 8 8 8 8 7 7 6 8 8 8 7 7 7 6 6 5 4 4 7 7 6 3 3 2 4 4
2 2 4 5 5 6 7 7 7 6 6 7 7 7 8 9 8 10 10 10 9 9 9 9 8 9 9 8 8 8 7 8 8 8 7 6 7 7 7 6 7 8 6 5 6 6 7 8 5 4 2 4
Wind_Direction
193 132 29 26 23 16 9 7 359 356 354 351 346 344 344 343 337 335 332 331 330 328 330 329 333 332 331 332 333 335 336 340 342 343 342 343 344 344 344 344 344 347 348 348 349 354 356 353 350 348 352 13
195 179 90 24 21 16 12 1 355 353 349 348 346 341 340 338 334 330 327 325 326 329 327 329 330 330 326 324 327 329 329 332 336 337 337 338 340 337 336 336 338 340 346 350 351 351 356 359 352 350 360 3
197 168 145 336 208 278 346 331 339 340 341 336 335 334 336 333 332 328 326 330 331 330 329 329 328 324 320 320 323 324 324 325 328 330 332 334 335 332 330 332 335 337 343 350 352 352 353 358 1 2 3 344
185 155 186 247 214 211 225 240 264 306 321 315 322 331 333 334 330 321 325 333 340 323 328 329 321 315 314 316 314 317 319 319 320 323 321 328 327 327 327 330 333 333 337 345 346 352 354 356 7 9 346 338
182 172 184 238 205 207 214 225 237 265 296 319 317 328 331 334 314 299 349 348 316 321 334 320 312 309 305 302 303 306 312 310 310 314 312 310 315 316 318 322 330 329 332 335 338 345 350 0 4 349 342 335
165 201 199 217 196 209 193 240 212 237 243 281 246 321 338 302 299 345 351 319 315 330 314 299 301 303 305 297 296 300 305 297 303 309 300 295 301 309 314 309 334 308 324 328 326 341 344 353 329 334 330 321
177 196 209 198 192 187 208 210 204 200 247 219 224 234 258 286 303 353 313 294 303 304 304 305 312 313 306 303 300 297 289 303 307 303 294 309 307 306 319 329 254 297 312 299 320 335 330 315 322 323 312 311
187 202 194 191 186 187 191 191 178 189 199 200 202 201 230 268 330 301 284 295 308 314 308 311 310 308 307 304 302 306 317 304 300 300 314 311 306 312 296 266 269 263 290 293 302 288 305 324 319 312 306 297
214 217 193 193 197 190 189 191 193 192 185 200 189 183 217 255 266 246 269 284 278 281 302 300 295 292 301 286 285 301 297 269 274 321 298 273 290 269 254 286 267 267 254 260 267 284 271 302 300 303 299 295
209 196 187 207 210 190 192 187 194 188 196 197 183 150 202 246 231 242 268 276 283 290 280 299 292 299 297 304 317 324 294 294 298 300 280 279 279 282 275 265 258 248 272 259 245 241 253 240 254 275 292 287
210 184 195 207 202 189 196 191 195 199 201 200 157 181 208 210 216 245 247 262 286 280 279 278 288 291 310 314 300 289 282 292 300 284 290 284 282 279 283 277 276 276 268 263 259 256 245 238 235 256 267 277
209 207 202 208 200 190 202 204 202 205 204 179 171 207 200 213 198 221 240 256 263 273 271 257 272 290 294 295 299 296 300 292 291 291 283 291 301 304 297 300 296 295 283 287 277 276 267 248 244 245 257 264
206 211 208 202 199 194 202 195 200 203 197 175 202 209 188 190 206 201 233 259 247 259 276 267 275 289 278 276 277 272 270 284 288 296 302 304 302 304 300 297 308 304 306 293 290 280 281 265 249 250 259 257
198 204 211 206 197 198 205 198 194 203 190 194 200 208 194 193 177 193 219 244 259 250 269 290 277 266 268 265 265 291 300 281 283 298 308 307 318 315 312 307 291 303 290 287 284 289 279 281 264 248 252 263
206 198 208 208 200 198 203 194 195 197 192 202 201 200 196 175 181 200 213 227 244 268 257 261 274 272 267 273 283 282 281 293 288 286 306 323 311 298 287 283 281 275 280 284 291 282 284 280 285 280 264 260
211 211 211 207 198 203 202 195 200 199 196 203 202 196 185 174 185 195 209 215 229 232 246 245 245 266 291 275 267 265 258 270 296 316 294 283 274 264 264 279 289 285 279 281 276 277 284 290 291 289 280 271
219 220 224 217 209 205 200 200 200 204 203 206 201 195 183 183 188 195 198 206 211 232 232 242 249 255 250 259 259 268 267 267 282 290 273 263 263 285 296 289 283 279 281 289 288 291 288 290 285 280 282 278
214 214 220 220 214 206 200 203 201 208 211 208 204 194 191 187 192 196 197 195 216 213 222 236 236 234 247 253 253 254 264 265 246 246 268 277 291 284 284 279 284 303 299 284 282 285 287 285 279 275 286 283
227 218 212 215 216 209 203 205 202 206 210 211 207 199 201 190 193 198 198 198 193 210 226 236 241 236 233 243 248 251 257 265 279 275 266 268 274 276 278 283 282 284 288 293 290 290 288 278 277 282 276 282
227 225 227 209 211 212 206 210 209 207 210 206 202 203 204 196 194 196 199 197 191 210 218 227 231 231 234 242 243 249 252 258 268 270 269 263 263 282 280 279 282 291 289 288 288 284 281 285 293 290 283 282
238 232 232 228 210 204 210 210 216 215 210 214 209 206 205 201 197 198 199 199 202 203 224 226 225 234 240 248 249 248 255 250 253 269 281 281 269 255 270 281 286 281 279 289 290 291 287 287 288 282 279 275
239 232 232 238 235 212 206 216 212 215 212 217 213 209 211 202 201 199 195 197 201 214 224 226 227 232 229 227 237 239 235 239 244 250 253 271 286 289 276 281 284 290 290 288 291 288 281 277 273 271 271 266
248 252 242 226 232 241 231 218 219 209 219 217 215 213 208 204 201 200 193 190 199 209 220 226 228 225 227 226 223 224 232 233 237 243 245 242 256 266 267 258 267 278 283 280 276 274 275 279 271 267 262 262
254 253 244 251 262 261 246 236 223 223 224 221 217 216 208 206 201 198 194 194 199 207 212 217 223 224 221 220 214 216 220 224 223 232 243 247 243 249 258 264 263 267 277 279 274 279 284 272 267 261 253 251
237 248 264 263 244 244 245 240 234 227 226 226 226 220 212 209 201 199 198 199 199 206 211 215 218 222 223 217 218 217 219 214 221 227 230 244 262 264 274 268 255 261 254 263 283 275 266 274 265 265 262 252
269 229 209 213 231 242 247 252 241 240 228 221 222 219 216 211 201 200 204 206 204 206 206 215 215 218 218 217 225 226 220 217 218 224 228 222 247 245 242 259 244 248 239 261 254 293 305 289 274 264 251 235
295 277 260 223 250 246 265 244 238 234 222 218 210 210 214 212 206 203 208 209 211 208 211 211 214 218 211 214 218 227 227 218 219 214 215 216 216 247 249 246 241 241 232 235 269 294 302 284 330 307 326 14
297 289 278 281 287 289 269 267 287 293 291 251 213 218 208 213 210 210 212 209 213 216 212 211 215 216 215 215 213 217 223 223 218 209 211 207 218 216 249 250 258 238 232 207 206 278 217 269 320 307 326 2
326 321 317 308 305 294 300 315 298 288 278 263 250 236 211 217 207 212 214 212 214 215 216 214 216 218 219 218 219 216 221 224 221 214 205 201 201 210 218 240 245 258 217 198 192 200 330 305 262 226 307 351
327 312 296 302 297 297 279 270 260 256 257 254 243 235 228 215 207 210 214 213 213 214 212 214 215 219 222 224 223 221 220 222 224 219 215 204 197 210 218 218 251 262 274 216 209 208 211 214 210 300 302 48
288 277 281 271 263 262 266 270 265 248 250 248 248 237 225 218 209 207 211 215 214 214 214 213 212 215 220 224 228 228 222 221 221 222 219 207 201 203 208 216 232 238 244 272 242 211 215 235 248 238 255 241